Location: Unspecified
(0.0000°N, 0.0000°E)
Time: 05:51:11
(UTC+00:00)

N. Korean satellite - Pass Details

Date: 18 October 2017
Orbit: 459 x 517 km, 97.2° (Epoch: 23 October)

Event Time Altitude Azimuth Distance (km) Brightness Sun altitude
Rises 18:28:40 0° 171° (S) 2,597 10.3 -10.7°
Reaches altitude 10° 18:30:46 10° 172° (S) 1,702 9.4 -11.3°
Maximum altitude 18:34:26 81° 258° (WSW) 502 6.7 -12.2°
Drops below altitude 10° 18:38:01 10° 347° (NNW) 1,660 9.3 -13.0°
Sets 18:40:03 0° 348° (NNW) 2,526 10.2 -13.5°
